Flag for Australia Weather past 2 weeks in Canberra, Australian Capital Territory, Australia

Now
50 °F

Overcast.


Feels Like: 48 °F
Forecast: 40 / 54 °F
Wind: 6 mph from North

Location: Canberra Airport

Current Time: Aug 1, 2015 at 10:09:39 PM

Latest Report: Aug 1, 2015 at 9:30 PM


Visibility: N/A

Pressure: 30.04 "Hg (28.02 "Hg at 577m altitude)

Humidity: 82%

Dew point: 45 °F

Location of CanberraLocation

Historic Weather in Canberra — Graph

°F

Canberra temperature yesterday

Maximum temperature yesterday: 59 °F (at 2:00 PM)
Minimum temperature yesterday: 39 °F (at 5:30 AM)
Average temperature yesterday: 48 °F

Past Weeks' High & Low Weather Summary

 TemperatureHumidityPressure
High59 °F (Jul 31, 2:00 PM)100% (Jul 18, 2:30 AM)30.54 "Hg (Jul 18, 2:30 AM)
Low23 °F (Jul 19, 6:30 AM)38% (Jul 20, 3:00 PM)29.92 "Hg (Jul 24, 5:30 PM)
Average42 °F80%30.24 "Hg
* Reported Jul 17 9:00 PM — Aug 1 9:00 PM, Canberra, Weather by CustomWeather, © 2015

Note: Actual official high and low records may vary slightly from our data, if they occured in-between our weather recording intervals... More about our weather records

Advertising

Canberra weather history for previous 24 hours

 ConditionsComfort  
Time TempWeatherWind HumidityBarometerVisibility
9:00 PM
Sat, Aug 1
48 °FPassing clouds.6 mph87%30.04 "HgN/A
8:30 PM50 °FSprinkles. Passing clouds.6 mph76%30.01 "HgN/A
8:00 PM50 °FSprinkles. Partly cloudy.12 mph82%30.04 "HgN/A
7:30 PM50 °FSprinkles. Passing clouds.13 mph76%30.04 "HgN/A
7:00 PM50 °FSprinkles. Passing clouds.10 mph82%30.01 "HgN/A
6:30 PM50 °FSprinkles. Passing clouds.13 mph82%30.01 "HgN/A
6:00 PM54 °FPartly cloudy.8 mph72%29.98 "HgN/A
5:30 PM55 °FPassing clouds.15 mph67%29.98 "HgN/A
5:00 PM55 °FPartly cloudy.16 mph67%29.95 "HgN/A
4:30 PM55 °FPartly cloudy.12 mph67%29.95 "HgN/A
4:00 PM57 °FPartly sunny.12 mph63%29.92 "HgN/A
3:30 PM57 °FPartly sunny.13 mph63%29.92 "HgN/A
3:00 PM57 °FScattered clouds.15 mph59%29.92 "HgN/A
2:30 PM55 °FSprinkles. Scattered clouds.21 mph63%29.92 "HgN/A
2:03 PM57 °FMore clouds than sun.20 mph55%29.95 "HgN/A
1:30 PM57 °FScattered clouds.16 mph55%29.95 "HgN/A
1:00 PM57 °FPartly sunny.22 mph55%29.92 "HgN/A
12:30 PM57 °FPartly sunny.21 mph51%29.92 "HgN/A
12:00 PM57 °FPartly sunny.20 mph51%29.95 "HgN/A
11:30 AM57 °FScattered clouds.20 mph55%29.95 "HgN/A
11:00 AM54 °FPartly sunny.22 mph58%29.95 "HgN/A
10:30 AM54 °FScattered clouds.20 mph63%29.98 "HgN/A
10:00 AM50 °FPartly sunny.18 mph71%29.98 "HgN/A
9:30 AM48 °FPartly sunny.20 mph71%29.98 "HgN/A
9:00 AM48 °FOvercast.20 mph71%29.98 "HgN/A
8:30 AM46 °FScattered clouds.20 mph76%29.98 "HgN/A
8:00 AM46 °FScattered clouds.20 mph76%29.98 "HgN/A
7:30 AM45 °FScattered clouds.20 mph81%29.98 "HgN/A
7:00 AM45 °FScattered clouds.21 mph81%29.98 "HgN/A
6:30 AM45 °FScattered clouds.17 mph76%29.98 "HgN/A
6:00 AM45 °FPassing clouds.12 mph81%29.98 "HgN/A
5:30 AM45 °FPartly cloudy.13 mph81%30.01 "HgN/A
5:00 AM45 °FClear.12 mph81%30.01 "HgN/A
4:30 AM45 °FPartly cloudy.12 mph81%30.01 "HgN/A
4:00 AM45 °FPartly cloudy.12 mph87%30.01 "HgN/A
3:30 AM45 °FPassing clouds.12 mph87%30.04 "HgN/A
3:00 AM45 °FPassing clouds.3 mph87%30.07 "HgN/A
2:30 AM36 °FClear.1 mph93%30.07 "HgN/A
2:00 AM37 °FClear.3 mph87%30.09 "HgN/A
1:30 AM41 °FClear.6 mph87%30.07 "HgN/A
1:00 AM43 °FPassing clouds.8 mph87%30.07 "HgN/A
12:30 AM45 °FOvercast.8 mph81%30.09 "HgN/A
12:00 AM45 °FPassing clouds.10 mph81%30.09 "HgN/A
11:30 PM
Fri, Jul 31
45 °FPassing clouds.10 mph81%30.12 "HgN/A
11:00 PM46 °FMostly cloudy.7 mph82%30.12 "HgN/A
10:30 PM45 °FClear.8 mph81%30.12 "HgN/A
10:00 PM45 °FPassing clouds.7 mph81%30.12 "HgN/A
Weather by CustomWeather, © 2015

See weather overviewHow to use our weather pages